Location: Buckenweiler
(49.0667°N, 10.2500°E)
Time: 23:08:02
(UTC+00:00)

Cosmos 2297 Rocket - Visible Passes

Search period start: 18 April 2026 00:00
Search period end: 28 April 2026 00:00
Orbit: 840 x 841 km, 71.0° (Epoch: 18 April)

Date Brightness Start Highest point End Pass type
(mag) Time Alt. Az. Time Alt. Az. Time Alt. Az.
18 Apr 4.9 03:13:32 10° SE 03:16:31 15° E 03:19:29 10° ENE visible
19 Apr 4.9 02:58:22 10° SE 03:01:05 14° E 03:03:48 10° ENE visible
20 Apr 4.9 02:43:13 10° ESE 02:45:39 13° E 02:48:04 10° ENE visible
21 Apr 4.9 02:28:09 10° ESE 02:30:13 12° E 02:32:17 10° ENE visible
22 Apr 4.9 02:13:09 10° ESE 02:14:48 11° E 02:16:26 10° ENE visible
23 Apr 5.0 01:58:22 10° ESE 01:59:21 10° E 02:00:22 10° E visible
23 Apr 2.7 03:36:41 10° SSW 03:42:15 65° ESE 03:47:52 10° NNE visible
24 Apr 2.7 03:21:14 10° SSW 03:26:47 62° ESE 03:32:22 10° NE visible
25 Apr 2.7 03:05:47 10° S 03:11:18 59° ESE 03:16:51 10° NE visible
26 Apr 2.8 02:50:21 10° S 02:55:50 56° ESE 03:01:21 10° NE visible
27 Apr 2.9 02:34:54 10° S 02:40:22 53° ESE 02:45:51 10° NE visible
